Flag for Germany Weather past 2 weeks in Münster, North Rhine-Westphalia, Germany

Now
55 °F

Broken clouds.


Feels Like: 53 °F
Forecast: 49 / 57 °F
Wind: 9 mph from South

Location: Muenster / Osnabrueck

Current Time: Oct 24, 2014 at 2:30:31 PM

Latest Report: Oct 24, 2014 at 1:50 PM


Visibility: N/A

Pressure: 30.12 "Hg

Humidity: 72%

Dew point: 46 °F

Location of MünsterLocation

Historic Weather in Münster — Graph

°F

Münster temperature yesterday

Maximum temperature yesterday: 55 °F (at 2:50 PM)
Minimum temperature yesterday: 45 °F (at 4:20 AM)
Average temperature yesterday: 51 °F

Past Weeks' High & Low Weather Summary

 TemperatureHumidityPressure
High73 °F (Oct 19, 1:50 PM)100% (Oct 10, 10:50 PM)30.21 "Hg (Oct 10, 10:50 PM)
Low45 °F (Oct 11, 7:20 AM)52% (Oct 14, 2:20 PM)29.45 "Hg (Oct 21, 4:20 PM)
Average56 °F87%29.88 "Hg
* Reported Oct 9 1:20 PM — Oct 24 1:20 PM, Münster, Weather by CustomWeather, © 2014

Note: Actual official high and low records may vary slightly from our data, if they occured in-between our weather recording intervals... More about our weather records

Advertising

Münster weather history for previous 24 hours

 ConditionsComfort  
Time TempWeatherWind HumidityBarometerVisibility
1:20 PM
Oct 24
55 °FBroken clouds.9 mph77%30.12 "HgN/A
12:50 PM55 °FBroken clouds.8 mph72%30.12 "HgN/A
12:20 PM55 °FBroken clouds.9 mph77%30.12 "HgN/A
11:50 AM55 °FBroken clouds.9 mph77%30.15 "HgN/A
11:20 AM55 °FBroken clouds.8 mph77%30.15 "HgN/A
10:50 AM54 °FBroken clouds.8 mph82%30.15 "HgN/A
10:20 AM54 °FBroken clouds.9 mph82%30.15 "HgN/A
9:50 AM54 °FBroken clouds.9 mph82%30.12 "HgN/A
9:20 AM52 °FPartly sunny.7 mph88%30.15 "HgN/A
8:50 AM52 °FPassing clouds.7 mph88%30.15 "HgN/A
8:20 AM52 °FPassing clouds.7 mph88%30.15 "HgN/A
7:50 AM52 °FPassing clouds.7 mph88%30.12 "HgN/A
7:20 AM52 °FPassing clouds.6 mph88%30.12 "HgN/A
6:50 AM52 °FPassing clouds.7 mph88%30.12 "HgN/A
6:20 AM52 °FPassing clouds.6 mph94%30.15 "HgN/A
5:50 AM52 °FPassing clouds.7 mph94%30.15 "HgN/A
5:20 AM52 °FPassing clouds.7 mph94%30.15 "HgN/A
4:50 AM52 °FPassing clouds.7 mph88%30.15 "HgN/A
4:20 AM52 °FPassing clouds.8 mph88%30.15 "HgN/A
3:50 AM52 °FPassing clouds.7 mph88%30.15 "HgN/A
3:20 AM52 °FPartly cloudy.7 mph88%30.15 "HgN/A
2:50 AM52 °FPassing clouds.7 mph94%30.15 "HgN/A
2:20 AM52 °FPassing clouds.7 mph94%30.15 "HgN/A
1:50 AM52 °FPassing clouds.7 mph94%30.15 "HgN/A
1:20 AM54 °FPassing clouds.7 mph88%30.15 "HgN/A
12:50 AM52 °FPassing clouds.5 mph94%30.15 "HgN/A
12:20 AM52 °FPassing clouds.6 mph94%30.18 "HgN/A
11:50 PM
Oct 23
52 °FPassing clouds.7 mph94%30.18 "HgN/A
11:20 PM52 °FPassing clouds.6 mph94%30.18 "HgN/A
10:50 PM52 °FPassing clouds.6 mph94%30.18 "HgN/A
10:20 PM52 °FPassing clouds.5 mph94%30.18 "HgN/A
9:50 PM54 °FPassing clouds.6 mph88%30.18 "HgN/A
9:20 PM52 °FPassing clouds.5 mph94%30.18 "HgN/A
8:50 PM52 °FPassing clouds.5 mph94%30.18 "HgN/A
8:20 PM54 °FPassing clouds.3 mph82%30.18 "HgN/A
7:50 PM54 °FPartly cloudy.5 mph82%30.15 "HgN/A
7:20 PM54 °FPassing clouds.6 mph88%30.15 "HgN/A
6:50 PM54 °FPartly sunny.5 mph82%30.15 "HgN/A
6:20 PM54 °FPartly sunny.5 mph82%30.15 "HgN/A
5:50 PM55 °FPartly sunny.7 mph77%30.18 "HgN/A
5:20 PM55 °FPartly sunny.7 mph82%30.18 "HgN/A
4:50 PM55 °FPartly sunny.9 mph77%30.18 "HgN/A
4:20 PM55 °FBroken clouds.7 mph82%30.18 "HgN/A
3:50 PM55 °FPartly sunny.7 mph77%30.18 "HgN/A
3:20 PM55 °FBroken clouds.9 mph82%30.18 "Hg6 mi
2:50 PM55 °FBroken clouds.7 mph77%30.18 "Hg6 mi
2:20 PM54 °FBroken clouds.7 mph88%30.18 "Hg4 mi
Weather by CustomWeather, © 2014

See weather overviewHow to use our weather pages